Fairbury, Nebraska, United States (68352)
Lat: 40.14N, Lon: 97.18W
Wx Zone: NEZ088
Local Info
Past Weather Observations for Today

NOTE: This archive is for the closest National Weather Service station to Fairbury. Information may differ from the station used for current weather conditions.

Click here for Long-term Archive

Time Weather Temperature Dewpoint Humidity Pressure Winds Precip Visibility
08:55
Clear
63°F / 17°C 54°F / 12°C 73% 30.06 in
(1018 mb)
S 13.8 mph
(S 22 kph)
- 10SM
08:35
Clear
61°F / 16°C 54°F / 12°C 77% 30.06 in
(1018 mb)
SSE 11.5 mph
(SSE 19 kph)
- 10SM
08:15
Clear
59°F / 15°C 52°F / 11°C 77% 30.06 in
(1018 mb)
SSE 11.5 mph
(SSE 19 kph)
- 10SM
07:55
Clear
57°F / 14°C 52°F / 11°C 82% 30.06 in
(1018 mb)
SSE 9.2 mph
(SSE 15 kph)
- 10SM
07:35
Clear
55°F / 13°C 50°F / 10°C 82% 30.06 in
(1018 mb)
SSE 9.2 mph
(SSE 15 kph)
- 10SM
07:15
Clear
55°F / 13°C 50°F / 10°C 82% 30.06 in
(1018 mb)
SSE 9.2 mph
(SSE 15 kph)
- 10SM
06:55
Clear
55°F / 13°C 50°F / 10°C 82% 30.06 in
(1018 mb)
SSE 10.4 mph
(SSE 17 kph)
- 10SM
06:35
Clear
55°F / 13°C 50°F / 10°C 82% 30.06 in
(1018 mb)
SSE 10.4 mph
(SSE 17 kph)
- 10SM
06:15
Clear
55°F / 13°C 50°F / 10°C 82% 30.06 in
(1018 mb)
SSE 10.4 mph
(SSE 17 kph)
- 10SM
05:55
Clear
55°F / 13°C 50°F / 10°C 82% 30.06 in
(1018 mb)
SSE 11.5 mph
(SSE 19 kph)
- 10SM
05:35
Clear
55°F / 13°C 50°F / 10°C 82% 30.06 in
(1018 mb)
SSE 10.4 mph
(SSE 17 kph)
- 10SM
05:15
Clear
55°F / 13°C 50°F / 10°C 82% 30.06 in
(1018 mb)
SSE 11.5 mph
(SSE 19 kph)
- 10SM
04:55
Clear
55°F / 13°C 52°F / 11°C 88% 30.06 in
(1018 mb)
SSE 11.5 mph
(SSE 19 kph)
- 10SM
04:35
Clear
57°F / 14°C 52°F / 11°C 82% 30.06 in
(1018 mb)
SSE 11.5 mph
(SSE 19 kph)
- 10SM
04:15
Clear
57°F / 14°C 52°F / 11°C 82% 30.04 in
(1017 mb)
SSE 10.4 mph
(SSE 17 kph)
- 10SM
03:55
Clear
57°F / 14°C 52°F / 11°C 82% 30.04 in
(1017 mb)
SSE 10.4 mph
(SSE 17 kph)
- 10SM
03:35
Clear
59°F / 15°C 52°F / 11°C 77% 30.04 in
(1017 mb)
SSE 9.2 mph
(SSE 15 kph)
- 10SM
03:15
Clear
59°F / 15°C 52°F / 11°C 77% 30.04 in
(1017 mb)
SSE 11.5 mph
(SSE 19 kph)
- 10SM
02:55
Clear
59°F / 15°C 52°F / 11°C 77% 30.04 in
(1017 mb)
SSE 9.2 mph
(SSE 15 kph)
- 10SM
02:35
Clear
59°F / 15°C 52°F / 11°C 77% 30.04 in
(1017 mb)
SSE 11.5 mph
(SSE 19 kph)
- 10SM
02:15
Clear
59°F / 15°C 52°F / 11°C 77% 30.04 in
(1017 mb)
SSE 10.4 mph
(SSE 17 kph)
- 10SM
01:55
Clear
59°F / 15°C 52°F / 11°C 77% 30.04 in
(1017 mb)
SSE 10.4 mph
(SSE 17 kph)
- 10SM
01:35
Clear
59°F / 15°C 52°F / 11°C 77% 30.04 in
(1017 mb)
SSE 9.2 mph
(SSE 15 kph)
- 10SM
01:15
Clear
57°F / 14°C 50°F / 10°C 77% 30.04 in
(1017 mb)
SSE 8.1 mph
(SSE 13 kph)
- 10SM
00:55
Clear
57°F / 14°C 50°F / 10°C 77% 30.01 in
(1016 mb)
SE 8.1 mph
(SE 13 kph)
- 10SM
00:35
Clear
57°F / 14°C 50°F / 10°C 77% 30.01 in
(1016 mb)
SE 9.2 mph
(SE 15 kph)
- 10SM
00:15
Clear
59°F / 15°C 50°F / 10°C 72% 30.01 in
(1016 mb)
SSE 10.4 mph
(SSE 17 kph)
- 10SM
Time Weather Temperature Dewpoint Humidity Pressure Winds Precip Visibility


Weather for websites

WeatherForYou.com, LLC is not responsible for any damages or problems caused by this service. Current weather conditions are obtained from the closest station including government and personal stations which may have varying degrees of accuracy. Weather forecasts are derived from the NOAA NDFD. Like all things, this site belongs to Jesus Christ... He just trusts me to maintain it. If you have any questions or comments email webmaster@weatherforyou.com

Copyright © 2014, WeatherForYou.com LLC. All rights reserved.